Rodrigo Nascimento

Info Calendar Victories 2018 2017 2016 2015 2014 2013 2012 2011 2010 2009 2008 2005 2004 Team matesComments

Teams INFO: we are currently re-structuring the UCI-rank

Season Div. Team FC-rank UCI-rank Race days * Wins * Km *
2018 Sao Francisco Saude-Klabin 2695(7p) - 21 - 2799.9
2017 Sao Francisco Saude-Klabin 4284(0p) - 11 - 1434.3
2016 Sao Francisco - Saude-Powerade-SMR 3411(2p) - 15 - 2026.0
2015 Sao Francisco - Saude 1676(26p) - 10 - 1584.9
* from UCI races

2018 Results

# What Date Pos GC What Race FC-rank
points
2018-11-11 NE One-day race 11.11 2 100.0 km 100 km de Brasília -
2018-09-16 NE One-day race 16.09 13 128.0 km Cidade de Ubatuba -
2018-08-06 NE One-day race 06.08 19 Prova Sao Salvador -
2018-07-01 CN Maringá 01.07 1 153.0 km CN Brazil RR -
2018-06-28 CN Maringá 28.06 4 28.0 km CN Brazil ITT -
2018-06-10 NE One-day race 10.06 9 Copa Cidade Cancao -
2018-05-06 CCRR San Juan 06.05 74 176.0 km CC Pan-America RR -
2018-05-03 CCTT San Juan 03.05 12 45.0 km CC Pan-America ITT 6
2018-04-21 NE One-day race 21.04 7 Inconfidencia Mineira-Ouro Branco -
2018-04-01 2.2 Stage race 23.03-01.04 31 Vuelta al Uruguay -
2018-02-25 NE One-day race 25.02 31 Desafio Sesc de Verão -Sorocaba -
2018-01-28 2.1 Stage race 21.01-28.01 126 Vuelta a San Juan -
2018-04-01 2.2 12.stage 01.04 40 31 145.2 km Vuelta al Uruguay -
2018-03-31 2.2 11.stage 31.03 66 27 165 km Vuelta al Uruguay -
2018-03-30 2.2 10.stage 30.03 39 28 106.7 km Vuelta al Uruguay -
2018-03-30 2.2 09.stage 30.03 16 26 22.8 km Vuelta al Uruguay 1
2018-03-29 2.2 08.stage 29.03 37 37 113.1 km Vuelta al Uruguay -
2018-03-28 2.2 07.stage 28.03 28 36 199.9 km Vuelta al Uruguay -
2018-03-27 2.2 06.stage 27.03 37 38 164.1 km Vuelta al Uruguay -
2018-03-26 2.2 05.stage 26.03 42 39 165.1 km Vuelta al Uruguay -
2018-03-25 2.2 04.stage 25.03 42 40 188.5 km Vuelta al Uruguay -
2018-03-24 2.2 03.stage 24.03 51 39 122.2 km Vuelta al Uruguay -
2018-03-24 2.2 02.stage (TTT) 24.03 5 45 25.3 km Vuelta al Uruguay -
2018-03-23 2.2 01.stage 23.03 50 50 201.6 km Vuelta al Uruguay -
2018-01-28 2.1 07.stage 28.01 78 126 141.3 km Vuelta a San Juan -
2018-01-27 2.1 06.stage 27.01 100 136 152.6 km Vuelta a San Juan -
2018-01-26 2.1 05.stage 26.01 140 131 169.5 km Vuelta a San Juan -
2018-01-24 2.1 04.stage 24.01 58 122 182.8 km Vuelta a San Juan -
2018-01-23 2.1 03.stage 23.01 106 120 14.4 km Vuelta a San Juan -
2018-01-22 2.1 02.stage 22.01 130 123 149.9 km Vuelta a San Juan -
2018-01-21 2.1 01.stage 21.01 99 98 148.9 km Vuelta a San Juan -

Info

Name Rodrigo Nascimento

Nation Brazil

Born33 year, Jun 23rd 1985

Stage victories

1x Volta a Goias